THOR AGENA B DEB, 510

Orbit data source: Space-Track

THOR AGENA B DEB, 510 is space debris in LEO originally from a launch on Sat, 29 Sep 1962 UTC launched from the Air Force Western Test Range (AFWTR). Debris objects in space refer to the collection of defunct objects orbiting the Earth. Examples of debris include non-operational satellites, rocket bodies, and fragments generated from explosions, collisions, or faulty payload assembly.

Loading next visibility...
Identifier
510, 1962-049C
Orbit
LEO
Country
Flag of USUS
Related business
Manufacturer
Unknown
Mission
Spacecraft
Bus & Motor
Unknown
Mass
Unknown
Launch date (UTC)
1962-09-29 (63 years ago)
Launch vehicle
Unknown
Launch site
Air Force Western Test Range (AFWTR)
Object type
Payload
Rocket body
Debris
Shape & HBR
Unknown shape, 0.1 m
Radar Cross Section
Small (<0.1 m²)

Expand to show TLE details & history
Last TLE update: 21 hours ago

TLE from 21 hours ago
0 THOR AGENA B DEB
1 00510U 62049C   25340.59057929  .00000110  00000-0  11485-3 0  9991
2 00510  80.5125 155.3851 0015170 227.8872 201.7587 13.70041348156291
Epoch: 2025-12-06T14:10Z
TLE epoch observation values (Epoch: 2025-12-06T14:10:26.050Z)
Latitude
67.65248°
Longitude
-108.98511°
Altitude
1,021.456 km
Speed
7.342 km/s
True Right ascension
11h 56m 57s
True Declination
67° 32' 08"
Sunlit
Object was in daylight at epoch
Visualization orbit readout
Latitude
Unknown
Longitude
Unknown
Altitude
Unknown
Speed
Unknown
Apparent Right ascension
Unknown
Apparent Declination
Unknown
Sunlit
N/A
Visualization observer readout
Local Sidereal Time
08:53:33
Azimuth
Unknown
Elevation
Unknown
Doppler factor
Unknown
Orbital elements
Apogee altitude
1,007.874 km
Perigee altitude
985.499 km
Semi-major axis
7,374.823 km
Eccentricity
0.00152
Inclination
80.5125°
RAAN
155.3851°
Arg. of periapsis
227.8872°
True anomaly
201.69437°
Mean anomaly
201.7587°
Eccentric anomaly
201.72653°
Mean motion
3.42701 °/min
Orbital period
105.05 mins
BSTAR
0.00011485
Loading maneuver chart data...
Computing Atmospheric mass density...
Loading historical data...
Loading historical data...
Loading historical data...
Loading historical data...
Loading historical data...
Loading historical data...
Loading historical data...
Other satellites on launch #49 in the year 1962 (1962-09-29 UTC)

Documentation

Showing up to 5 results
|